This demonstration page uses our WeatherBlox Daily Observations layout. Learn more.

38.88101, -77.10428

Hourly Observations for January 6, 2017

Temp ( °F °C ) Dew Point ( °F °C ) Humidity (%) Winds ( mph kmh ) Pressure ( in mb ) Visibility ( mi km ) Precip ( " mm )
12:52 am 00:52 Cloudy 35 1.7 30 -1.1 82 82 NNE 9 15 29.91 1013 10 16.0934 0.001 0.001
1:52 am 01:52 Cloudy with Light Snow 34 1.1 29 -1.7 82 82 N 14 22 29.95 1014 9 14.48406 0.001 0.001
2:52 am 02:52 Cloudy 33 0.6 28 -2.2 82 82 N 14 22 29.96 1015 9 14.48406 0.001 0.001
3:06 am 03:06 Cloudy 34 1 28 -2 81 81 N 10 17 29.94 1014 10 16.0934 0 0
3:52 am 03:52 Cloudy 33 0.6 27 -2.8 78 78 N 12 19 29.93 1014 10 16.0934 0 0
4:52 am 04:52 Cloudy 33 0.6 22 -5.6 64 64 NNW 15 24 29.98 1015 10 16.0934 0 0
5:52 am 05:52 Cloudy 32 0 21 -6.1 64 64 N 9 15 29.98 1015 10 16.0934 0 0
6:52 am 06:52 Cloudy 32 0 20 -6.7 61 61 NNW 10 17 30.02 1017 10 16.0934 0 0
7:52 am 07:52 Cloudy 32 0 17 -8.3 54 54 NNW 15 24 30.06 1018 10 16.0934 0 0
8:52 am 08:52 Cloudy 32 0 17 -8.3 54 54 NNW 12 19 30.09 1019 10 16.0934 0 0
9:52 am 09:52 Mostly Cloudy 32 0 17 -8.3 54 54 NNE 14 22 30.11 1020 10 16.0934 0 0
10:52 am 10:52 Mostly Cloudy 33 0.6 15 -9.4 47 47 NW 15 24 30.15 1021 10 16.0934 0 0
11:52 am 11:52 Mostly Cloudy 32 0 13 -10.6 45 45 N 16 26 30.14 1021 10 16.0934 0 0
12:52 pm 12:52 Cloudy 34 1.1 13 -10.6 42 42 NW 16 26 30.14 1021 10 16.0934 0 0
1:52 pm 13:52 Cloudy 32 0 12 -11.1 43 43 NW 13 20 30.14 1021 10 16.0934 0 0
2:52 pm 14:52 Cloudy 31 -0.6 12 -11.1 45 45 N 12 19 30.16 1021 10 16.0934 0 0
3:52 pm 15:52 Cloudy 30 -1.1 11 -11.7 45 45 NW 12 19 30.19 1022 10 16.0934 0 0
4:52 pm 16:52 Cloudy 30 -1.1 11 -11.7 45 45 NNW 9 15 30.22 1023 10 16.0934 0 0
5:52 pm 17:52 Cloudy 30 -1.1 11 -11.7 45 45 NNW 12 19 30.25 1024 10 16.0934 0 0
6:52 pm 18:52 Cloudy 29 -1.7 11 -11.7 47 47 NNW 13 20 30.26 1025 10 16.0934 0 0
7:52 pm 19:52 Cloudy 29 -1.7 11 -11.7 47 47 N 12 19 30.27 1025 10 16.0934 0 0
8:52 pm 20:52 Cloudy 28 -2.2 10 -12.2 47 47 N 8 13 30.27 1025 10 16.0934 0 0
9:52 pm 21:52 Mostly Cloudy 28 -2.2 10 -12.2 47 47 N 10 17 30.28 1025 10 16.0934 0 0
10:52 pm 22:52 Cloudy 28 -2.2 8 -13.3 43 43 N 12 19 30.3 1026 10 16.0934 0 0
11:52 pm 23:52 Cloudy 28 -2.2 8 -13.3 43 43 N 16 26 30.3 1026 10 16.0934 0 0

Powered by AerisWeather